DECAYED

STARLINK-6070, 56802 (Decayed)

Orbit data source: Space-Track

STARLINK-6070, 56802 was a payload satellite owned by SpaceX/Seattle (US) in LEO that was launched on Wed, 31 May 2023 UTC via an FALCON 9 launch vehicle from the Air Force Western Test Range (AFWTR). Payload-class satellites include a variety of spacecraft equipped with specific instruments for various scientific and technological missions. These include communications satellites like Starlink; space stations such as the ISS; scientific satellites like the Hubble; Earth observation satellites from companies like Planet Labs, Umbra, and HawkEye 360; GPS; miniature CubeSats for education and research; and military/defense satellites.

Not visible in the next 10 days
Identifier
56802, 2023-078AM
Orbit
Decayed
Country
Flag of USUS
Related business
Manufacturer
SpaceX/Seattle
Mission
Decayed Commercial Communications
Bus & Motor
STARLINK, Unknown motor
Mass
305 kg wet, ~290 kg dry
Launch date (UTC)
2023-05-31 (3 years ago)
Launch vehicle
FALCON 9
Launch site
Air Force Western Test Range (AFWTR)
Object type
Payload
Rocket body
Debris
Shape & HBR
Box + 1 Pan, 10.1 m
Radar Cross Section
11.087 m², Large (>1 m²)

Expand to show TLE details & history
Last TLE update: 1 month ago

TLE from 1 month ago
0 STARLINK-6070
1 56802U 23078AM  26129.47332836  .04597762  44257-5  14264-3 0  9994
2 56802  69.9901 149.3391 0010376 260.9746  99.0313 16.44101679162810
Epoch: 2026-05-09T11:21Z
TLE epoch observation values (Epoch: 2026-05-09T11:21:35.570Z)
Latitude
-0.00001°
Longitude
111.65063°
Altitude
158.563 km
Speed
7.811 km/s
True Right ascension
09h 57m 21s
True Declination
0° 00' 00"
Sunlit
Object was in daylight at epoch
Visualization orbit readout
Latitude
Unknown
Longitude
Unknown
Altitude
Unknown
Speed
Unknown
Apparent Right ascension
Unknown
Apparent Declination
Unknown
Sunlit
N/A
Visualization observer readout
Local Sidereal Time
21:36:16
Azimuth
Unknown
Elevation
Unknown
Doppler factor
Unknown
Orbital elements
Apogee altitude
159.508 km
Perigee altitude
145.956 km
Semi-major axis
6,530.869 km
Eccentricity
0.00104
Inclination
69.9901°
RAAN
149.3391°
Arg. of periapsis
260.9746°
True anomaly
99.1487°
Mean anomaly
99.0313°
Eccentric anomaly
99.09°
Mean motion
4.11232 °/min
Orbital period
87.54 mins
BSTAR
0.00014264
Loading maneuver chart data...
Computing Atmospheric mass density...
Loading historical data...
Loading historical data...
Loading historical data...
Loading historical data...
Loading historical data...
Loading historical data...
Loading historical data...

Documentation

Showing up to 5 results
|